Station GDMM5 - 9099090 - Grand Marais, MN Image indicating link to RSS feed of recent meteorological observations for station GDMM5


Conditions at GDMM5 as of
(6:30 am CDT)
1130 GMT on 07/16/2024:
     

Click on the graph icon in the table below to see a time series plot of the last five days of that observation.

5-day plot - Atmospheric Pressure Atmospheric Pressure (PRES):29.71 in
5-day plot - Air Temperature Air Temperature (ATMP): 63.5 °F
5-day plot - Water Temperature Water Temperature (WTMP): 53.4 °F
5-day plot - Dew Point Dew Point (DEWP): 59.9 °F
NOS Water Level Observation Network Water Level
Previous observations
TIME
(CDT)
5-day plot - Wind Direction
WDIR
 
5-day plot - Wind Speed
WSPD
kts
5-day plot - Wind Gust
GST
kts
5-day plot - Wave Height
WVHT
ft
5-day plot - Dominant Wave Period
DPD
sec
5-day plot - Average Wave Period
APD
sec
5-day plot - Mean Wave Direction
MWD
 
5-day plot - Atmospheric Pressure
PRES
in
5-day plot - Pressure Tendency
PTDY
in
5-day plot - Air Temperature
ATMP
°F
5-day plot - Water Temperature
WTMP
°F
5-day plot - Dew Point
DEWP
°F
5-day plot - Salinity
SAL
psu
5-day plot - Visibility
VIS
nmi
5-day plot - Tide (above MLLW)
TIDE
ft
2024-07-16 06:24 am-------29.71- 63.9 53.4 59.7---
2024-07-16 06:18 am-------29.71- 63.7 53.4 59.9---
2024-07-16 06:12 am-------29.70- 63.9 53.4 59.7---
2024-07-16 06:06 am-------29.71- 62.8 53.4 59.5---
2024-07-16 06:00 am-------29.70+0.00 63.3 53.4 59.7---
2024-07-16 05:54 am-------29.71- 63.5 53.4 59.9---
2024-07-16 05:48 am-------29.71- 63.3 53.4 59.7---
2024-07-16 05:42 am-------29.70- 63.5 53.4 59.7---
2024-07-16 05:36 am-------29.70- 63.5 53.4 59.4---
2024-07-16 05:30 am-------29.70- 64.4 53.4 59.5---
2024-07-16 05:24 am-------29.71- 64.0 53.4 59.4---
2024-07-16 05:18 am-------29.71- 64.9 53.4 59.5---
2024-07-16 05:12 am-------29.71- 65.5 53.4 59.7---
2024-07-16 05:06 am-------29.70- 65.5 53.4 59.7---
2024-07-16 05:00 am-------29.70+0.00 65.5 53.4 59.9---
2024-07-16 04:54 am-------29.70- 65.5 53.4 59.9---
2024-07-16 04:48 am-------29.70-- 53.4----
2024-07-16 04:42 am-------29.70-- 53.4----
2024-07-16 04:36 am-------29.70-- 53.4----
2024-07-16 04:30 am-------29.70- 65.8 53.4 60.6---
2024-07-16 04:24 am-------29.70- 66.0 53.4 60.6---
2024-07-16 04:18 am-------29.70- 66.2 53.4 60.8---
2024-07-16 04:12 am-------29.70- 65.8 53.4 60.8---
2024-07-16 04:06 am-------29.70- 65.8 53.4 61.0---
2024-07-16 04:00 am-------29.70-0.03 65.8 53.4 61.0---
2024-07-16 03:54 am-------29.70- 65.7 53.4 61.0---
2024-07-16 03:48 am-------29.69- 65.7 53.4 61.0---
2024-07-16 03:42 am-------29.70- 65.5 53.4 60.8---
2024-07-16 03:36 am-------29.70- 65.5 53.4 61.0---
2024-07-16 03:30 am-------29.70- 65.5 53.4 61.3---
2024-07-16 03:24 am-------29.70- 65.5 53.4 61.3---
2024-07-16 03:18 am-------29.70- 65.5 53.4 61.5---
2024-07-16 03:12 am-------29.70- 65.3 53.4 61.5---
2024-07-16 03:06 am-------29.70- 65.3 53.4 61.7---
2024-07-16 03:00 am-------29.70-0.03 65.3 53.4 61.9---
2024-07-16 02:54 am-------29.70- 65.5 53.4 62.1---
2024-07-16 02:48 am-------29.70-- 53.4----
2024-07-16 02:42 am-------29.71-- 53.4----
2024-07-16 02:36 am-------29.70-- 53.4----
2024-07-16 02:30 am-------29.70- 65.5 53.4 62.2---
2024-07-16 02:24 am-------29.70- 65.7 53.4 62.4---
2024-07-16 02:18 am-------29.70- 65.5 53.4 62.2---
2024-07-16 02:12 am-------29.70- 65.5 53.4 62.4---
2024-07-16 02:06 am-------29.71- 65.1 53.4 62.6---
2024-07-16 02:00 am-------29.70-0.03 64.6 53.4 62.6---
2024-07-16 01:54 am-------29.71- 63.7 53.4 62.6---
2024-07-16 01:48 am-------29.71- 61.7 53.4 61.7---
2024-07-16 01:42 am-------29.72- 61.7 53.4 61.7---
2024-07-16 01:36 am-------29.72- 62.2 53.4 62.2---
2024-07-16 01:30 am-------29.72- 62.4 53.4 62.4---
2024-07-16 01:24 am-------29.72- 61.5 53.4 61.5---
2024-07-16 01:18 am-------29.72- 61.2 53.4 61.2---
2024-07-16 01:12 am-------29.72- 61.3 53.4 61.3---
2024-07-16 01:06 am-------29.72- 61.5 53.4 61.5---
2024-07-16 01:00 am-------29.72+0.00 61.5 53.4 61.5---
2024-07-16 12:54 am-------29.72- 61.3 53.4 61.3---
2024-07-16 12:48 am-------29.73-- 53.4----
2024-07-16 12:42 am-------29.73-- 53.4----
2024-07-16 12:36 am-------29.73-- 53.4----
2024-07-16 12:30 am-------29.73- 61.7 53.4 61.7---
2024-07-16 12:24 am-------29.73- 61.9 53.4 61.9---
2024-07-16 12:18 am-------29.73- 61.9 53.4 61.9---
2024-07-16 12:12 am-------29.73- 61.7 53.4 61.7---
2024-07-16 12:06 am-------29.73- 61.7 53.4 61.7---
2024-07-16 12:00 am-------29.73+0.04 61.9 53.4 61.9---
2024-07-15 11:54 pm-------29.73- 62.1 53.4 62.1---
2024-07-15 11:48 pm-------29.73- 62.1 53.4 62.1---
2024-07-15 11:42 pm-------29.73- 62.2 53.4 62.2---
2024-07-15 11:36 pm-------29.73- 62.2 53.4 62.2---
2024-07-15 11:30 pm-------29.73- 62.4 53.4 62.4---
2024-07-15 11:24 pm-------29.73- 62.4 53.4 62.4---
2024-07-15 11:18 pm-------29.73- 62.6 53.4 62.6---
2024-07-15 11:12 pm-------29.73- 62.8 53.4 62.8---
2024-07-15 11:06 pm-------29.73- 63.0 53.4 63.0---
2024-07-15 11:00 pm-------29.73+0.04 62.8 53.4 62.8---
2024-07-15 10:54 pm-------29.72- 62.8 53.4 62.8---
2024-07-15 10:48 pm-------29.72-- 53.6----
2024-07-15 10:42 pm-------29.72-- 53.4----
2024-07-15 10:36 pm-------29.72-- 53.6----
2024-07-15 10:30 pm-------29.73- 62.8 53.6 62.8---
2024-07-15 10:24 pm-------29.73- 62.8 53.6 62.8---
2024-07-15 10:18 pm-------29.73- 62.6 53.6 62.6---
2024-07-15 10:12 pm-------29.72- 62.6 53.6 62.6---
2024-07-15 10:06 pm-------29.72- 62.4 53.6 62.4---
2024-07-15 10:00 pm-------29.72+0.03 62.1 53.4 62.1---
2024-07-15 09:54 pm-------29.72- 61.9 53.6 61.9---
2024-07-15 09:48 pm-------29.72- 61.9 53.6 61.9---
2024-07-15 09:42 pm-------29.71- 61.3 53.6 61.3---
2024-07-15 09:36 pm-------29.71- 61.3 53.6 61.3---
2024-07-15 09:30 pm-------29.70- 61.5 53.6 61.5---
2024-07-15 09:24 pm-------29.70- 62.1 53.6 62.1---
2024-07-15 09:18 pm-------29.70- 62.2 53.6 62.2---
2024-07-15 09:12 pm-------29.69- 62.4 53.6 62.4---
2024-07-15 09:06 pm-------29.69- 62.4 53.6 62.4---
2024-07-15 09:00 pm-------29.69+0.01 62.6 53.6 62.6---
2024-07-15 08:54 pm-------29.69- 62.8 53.6 62.8---
2024-07-15 08:48 pm-------29.69- 63.0 53.6 63.0---
2024-07-15 08:42 pm-------29.69- 63.1 53.6 63.1---
2024-07-15 08:36 pm-------29.68- 63.0 53.6 63.0---
2024-07-15 08:30 pm-------29.68- 62.2 53.6 62.2---
2024-07-15 08:24 pm-------29.68- 62.1 53.6 62.1---
2024-07-15 08:18 pm-------29.68- 63.0 53.6 63.0---
2024-07-15 08:12 pm-------29.68- 63.0 53.6 63.0---
2024-07-15 08:06 pm-------29.69- 63.0 53.6 63.0---
2024-07-15 08:00 pm-------29.69+0.00 63.1 53.6 63.1---
2024-07-15 07:54 pm-------29.69- 63.9 53.4 63.7---
2024-07-15 07:48 pm-------29.69- 64.2 53.4 63.7---
2024-07-15 07:42 pm-------29.69- 64.2 53.4 63.7---
2024-07-15 07:36 pm-------29.69- 63.3 53.4 63.3---
2024-07-15 07:30 pm-------29.69- 63.5 53.4 63.3---
2024-07-15 07:24 pm-------29.69- 64.2 53.4 63.9---
2024-07-15 07:18 pm-------29.68- 65.5 53.4 64.6---
2024-07-15 07:12 pm-------29.69- 65.8 53.4 64.8---
2024-07-15 07:06 pm-------29.69- 65.5 53.4 64.9---
2024-07-15 07:00 pm-------29.69-0.01- 53.4----
2024-07-15 06:54 pm-------29.68-- 53.4----
2024-07-15 06:48 pm-------29.68-------
2024-07-15 06:42 pm-------29.69-------
2024-07-15 06:36 pm-------29.68-------
2024-07-15 06:30 pm-------29.68-------
2024-07-15 06:24 pm-------29.68-------
2024-07-15 06:18 pm-------29.68- 63.9 53.4 63.7---
2024-07-15 06:12 pm-------29.68- 63.7 53.4 63.3---
2024-07-15 06:06 pm-------29.68- 64.0 53.4 63.5---
2024-07-15 06:00 pm-------29.67-0.01 63.5 53.4 63.3---
2024-07-15 05:54 pm-------29.68- 63.0 53.4 63.0---
2024-07-15 05:48 pm-------29.68-- 53.4----
2024-07-15 05:42 pm-------29.68-- 53.4----
2024-07-15 05:36 pm-------29.68-- 53.4----
2024-07-15 05:30 pm-------29.68- 61.9- 61.9---
2024-07-15 05:24 pm-------29.69- 63.1- 63.1---
2024-07-15 05:18 pm-------29.68- 62.2 53.4 62.2---
2024-07-15 05:12 pm-------29.69- 62.1 53.4 62.1---
2024-07-15 05:06 pm-------29.69- 61.9 53.4 61.9---
2024-07-15 05:00 pm-------29.69+0.00 61.0 53.4 61.0---
2024-07-15 04:54 pm-------29.69- 62.2 53.4 62.2---
2024-07-15 04:48 pm--------- 63.0 53.4 62.6---
2024-07-15 04:42 pm--------- 63.7 53.4 63.7---
2024-07-15 04:36 pm--------- 63.5 53.4 63.5---
2024-07-15 04:30 pm-------29.70- 63.7 53.4 63.7---
2024-07-15 04:24 pm-------29.70- 62.6 53.4 62.6---
2024-07-15 04:18 pm-------29.70- 62.6 53.4 62.6---
2024-07-15 04:12 pm-------29.70- 61.9 53.4 61.9---
2024-07-15 04:06 pm-------29.70- 62.4 53.4 62.4---
2024-07-15 04:00 pm-------29.70+0.02- 53.4----
2024-07-15 03:54 pm-------29.70-- 53.4----
2024-07-15 03:48 pm-------29.69- 63.3 53.4 63.3---
2024-07-15 03:42 pm-------29.69- 64.4 53.4 64.4---
2024-07-15 03:36 pm-------29.69- 66.9 53.4 66.9---
2024-07-15 03:30 pm-------29.68- 64.9 53.4 64.9---
2024-07-15 03:24 pm-------29.69- 63.5 53.4 63.5---
2024-07-15 03:18 pm-------29.69- 60.4 53.4 60.4---
2024-07-15 03:12 pm-------29.69- 61.2 53.4 61.2---
2024-07-15 03:06 pm-------29.69- 61.0 53.4 61.0---
2024-07-15 03:00 pm-------29.69-0.04 63.9 53.4 63.9---
2024-07-15 02:54 pm-------29.69- 64.0 53.4 64.0---
2024-07-15 02:48 pm-------29.69-- 53.4----
2024-07-15 02:42 pm-------29.69-- 53.4----
2024-07-15 02:36 pm-------29.68-- 53.4----
2024-07-15 02:30 pm-------29.68- 66.2 53.4 65.5---
2024-07-15 02:24 pm-------29.68- 65.8 53.4 65.8---
2024-07-15 02:18 pm-------29.69- 66.2 53.4 66.2---
2024-07-15 02:12 pm-------29.69- 66.4 53.4 66.4---
2024-07-15 02:06 pm-------29.69- 66.6 53.4 66.6---
2024-07-15 02:00 pm-------29.69-0.04 66.2 53.4 66.2---
2024-07-15 01:54 pm-------29.69- 67.1 53.4 65.7---
2024-07-15 01:48 pm-------29.69- 67.6 53.4 66.7---
2024-07-15 01:42 pm-------29.69- 66.0 53.4 64.6---
2024-07-15 01:36 pm-------29.70- 67.1 53.4 61.9---
2024-07-15 01:30 pm-------29.70- 67.5 53.4 60.3---
2024-07-15 01:24 pm-------29.67- 68.5 53.4 59.7---
2024-07-15 01:18 pm-------29.67- 69.4 53.4 59.7---
2024-07-15 01:12 pm-------29.67- 69.3 53.4 60.1---
2024-07-15 01:06 pm-------29.68- 69.3 53.4 59.4---
2024-07-15 01:00 pm-------29.68-0.05 68.9 53.4 59.5---
2024-07-15 12:54 pm-------29.69- 69.1 53.4 59.2---
2024-07-15 12:48 pm-------29.69- 68.9 53.2 59.4---
2024-07-15 12:42 pm-------29.70- 68.4 53.2 59.4---
2024-07-15 12:36 pm-------29.70- 68.5 53.2 59.0---
2024-07-15 12:30 pm-------29.70- 68.7 53.2 59.9---
2024-07-15 12:24 pm-------29.70- 69.3 53.4 58.5---
2024-07-15 12:18 pm-------29.71- 69.8 53.4 58.1---
2024-07-15 12:12 pm-------29.72- 70.3 53.4 57.7---
2024-07-15 12:06 pm-------29.72- 70.3 53.4 57.2---
2024-07-15 12:00 pm-------29.72-0.03 70.3 53.4 57.6---
2024-07-15 11:54 am-------29.72- 69.6 53.4 57.7---
2024-07-15 11:48 am-------29.72- 68.9 53.4 59.2---
2024-07-15 11:42 am-------29.72- 68.4 53.4 60.1---
2024-07-15 11:36 am-------29.73- 68.2 53.4 60.1---
2024-07-15 11:30 am-------29.72- 67.8 53.4 60.6---
2024-07-15 11:24 am-------29.72- 67.6 53.2 61.0---
2024-07-15 11:18 am-------29.72- 67.5 53.2 61.0---
2024-07-15 11:12 am-------29.72- 68.4 53.4 60.3---
2024-07-15 11:06 am-------29.73- 68.4 53.2 60.6---
2024-07-15 11:00 am-------29.73-0.05 68.4 53.2 61.2---
2024-07-15 10:54 am-------29.73- 67.8 53.4 61.3---
2024-07-15 10:48 am-------29.73- 67.3 53.4 61.3---
2024-07-15 10:42 am-------29.74- 67.3 53.4 61.2---
2024-07-15 10:36 am-------29.73- 67.6 53.4 60.6---
2024-07-15 10:30 am-------29.74- 66.6 53.4 60.4---
2024-07-15 10:24 am-------29.74- 65.7 53.4 60.1---
2024-07-15 10:18 am-------29.74- 66.7 53.4 60.6---
2024-07-15 10:12 am-------29.74- 66.6 53.4 60.4---
2024-07-15 10:06 am-------29.73- 66.4 53.4 59.9---
2024-07-15 10:00 am-------29.74-0.03 68.7 53.4 59.5---
2024-07-15 09:54 am-------29.74- 68.2 53.4 59.9---
2024-07-15 09:48 am-------29.74- 67.8 53.4 60.4---
2024-07-15 09:42 am-------29.74- 70.9 53.2 61.0---
2024-07-15 09:36 am-------29.75- 71.2 53.2 59.7---
2024-07-15 09:30 am-------29.75- 70.9 53.2 59.2---
2024-07-15 09:24 am-------29.75- 70.7 53.2 59.2---
2024-07-15 09:18 am-------29.75- 69.4 53.2 60.3---
2024-07-15 09:12 am-------29.75- 69.6 53.2 59.9---
2024-07-15 09:06 am-------29.76- 71.1 53.2 59.2---
2024-07-15 09:00 am-------29.76-0.01 70.7 53.2 59.9---
2024-07-15 08:54 am-------29.75- 68.9 53.2 61.5---
2024-07-15 08:48 am-------29.75- 70.2 53.2 60.1---
2024-07-15 08:42 am-------29.76- 70.3 53.2 59.9---
2024-07-15 08:36 am-------29.76- 68.7 53.2 61.3---
2024-07-15 08:30 am-------29.77- 69.3 53.2 61.0---
2024-07-15 08:24 am-------29.78- 68.2 53.2 61.3---
2024-07-15 08:18 am-------29.78- 69.4 53.2 61.9---
2024-07-15 08:12 am-------29.78- 67.1 53.2 61.3---
2024-07-15 08:06 am-------29.78- 67.5 53.2 61.3---
2024-07-15 08:00 am-------29.78+0.00 67.5 53.2 61.7---
2024-07-15 07:54 am-------29.78- 68.4 53.2 62.8---
2024-07-15 07:48 am-------29.78- 66.2 53.2 61.3---
2024-07-15 07:42 am-------29.78- 69.3 53.2 63.3---
2024-07-15 07:36 am-------29.78- 66.2 53.2 61.9---
2024-07-15 07:30 am-------29.78- 67.3 53.2 61.9---
2024-07-15 07:24 am-------29.78- 66.4 53.2 60.8---
2024-07-15 07:18 am-------29.78- 65.3 53.2 60.8---
2024-07-15 07:12 am-------29.78- 66.0 53.2 61.2---
2024-07-15 07:06 am-------29.77- 66.9 53.2 61.3---
2024-07-15 07:00 am-------29.77+0.00 67.5 53.2 61.7---
2024-07-15 06:54 am-------29.77- 68.0 53.2 61.7---